Flag for France Weather past 2 weeks in Amsterdam Island, French Southern Territories, France

Now
54 °F

Cool.


Feels Like: 48 °F
Forecast: 50 / 54 °F
Wind: 22 mph from Northwest

Location: Martin De Vivies Ile Amsterdam

Current Time: Sep 23, 2014 at 6:18:22 PM

Latest Report: Sep 23, 2014 at 5:00 PM


Visibility: N/A

Pressure: 29.67 "Hg

Humidity: 89%

Dew point: 50 °F

Location of Amsterdam IslandLocation

Historic Weather in Amsterdam Island — Graph

°F

Amsterdam Island temperature yesterday

Maximum temperature yesterday: 57 °F (at 11:00 AM)
Minimum temperature yesterday: 50 °F (at 1:00 AM)
Average temperature yesterday: 53 °F

Past Weeks' High & Low Weather Summary

 TemperatureHumidityPressure
High59 °F (Sep 15, 2:00 PM)96% (Sep 17, 9:00 AM)30.32 "Hg (Sep 17, 9:00 AM)
Low41 °F (Sep 19, 7:00 AM)46% (Sep 12, 12:00 PM)29.41 "Hg (Sep 11, 9:00 PM)
Average53 °F80%29.86 "Hg
* Reported Sep 8 5:00 PM — Sep 23 5:00 PM, Amsterdam Island, Weather by CustomWeather, © 2014

Note: Actual official high and low records may vary slightly from our data, if they occured in-between our weather recording intervals... More about our weather records

Advertising

Amsterdam Island weather history for previous 24 hours

 ConditionsComfort  
Time TempWeatherWind HumidityBarometerVisibility
5:00 PM
Sep 23
54 °FCool.22 mph89%29.67 "HgN/A
4:00 PM55 °FCool.25 mph80%29.69 "HgN/A
3:00 PM56 °FCool.24 mph74%29.71 "HgN/A
2:00 PM57 °FCool.21 mph86%29.72 "HgN/A
1:00 PM55 °FCool.20 mph95%29.75 "HgN/A
12:00 PM56 °FCool.24 mph91%29.78 "HgN/A
11:00 AM56 °FCool.18 mph90%29.82 "HgN/A
10:00 AM56 °FCool.15 mph88%29.84 "HgN/A
9:00 AM57 °FCool.17 mph87%29.85 "HgN/A
8:00 AM56 °FCool.17 mph87%29.87 "HgN/A
7:00 AM55 °FCool.18 mph87%29.88 "HgN/A
6:00 AM53 °FCool.18 mph88%29.88 "HgN/A
5:00 AM52 °FCool.20 mph87%29.88 "HgN/A
4:00 AM52 °FCool.18 mph90%29.88 "HgN/A
3:00 AM52 °FCool.18 mph90%29.89 "HgN/A
2:00 AM51 °FCool.22 mph84%29.91 "HgN/A
1:00 AM52 °FCool.18 mph85%29.93 "HgN/A
12:00 AM50 °FCool.14 mph93%29.94 "HgN/A
11:00 PM
Sep 22
53 °FCool.15 mph90%29.96 "HgN/A
10:00 PM52 °FCool.18 mph86%29.98 "HgN/A
9:00 PM53 °FCool.18 mph81%30.00 "HgN/A
8:00 PM53 °FCool.15 mph78%30.02 "HgN/A
7:00 PM53 °FCool.15 mph81%30.02 "HgN/A
6:00 PM53 °FCool.14 mph81%30.01 "HgN/A
Weather by CustomWeather, © 2014

See weather overviewHow to use our weather pages